Columbus, NE

4:35 PM CDT on March 30, 2017 (GMT -0500)
Columbus Municipal

Weather History for KOLU - April, 2013

Change the Weather History Date:

Monday, April 1, 2013

  Actual Average Record
Temperature  
Mean Temperature 31 °F -  
Max Temperature 41 °F 53 °F 89 °F (2012)
Min Temperature 21 °F 32 °F 16 °F (1975)
Degree Days  
Heating Degree Days 34    
Moisture  
Dew Point 18 °F    
Average Humidity 59    
Maximum Humidity 74    
Minimum Humidity 39    
Precipitation  
Precipitation 0.07 in - - ()
Sea Level Pressure  
Sea Level Pressure 30.28 in    
Wind  
Wind Speed 10 mph (North)    
Max Wind Speed 17 mph    
Max Gust Speed 24 mph    
Visibility 10 miles    
Events      
Averages and records for this station are not official NWS values.
T = Trace of Precipitation, MM = Missing Value Source: NWS Daily Summary

Daily Weather History Graph

Daily Weather History Graph

Search for Another Location

Airport or City:

Trip Planner

Search our weather history database for the weather conditions in past years. The results will help you decide how hot, cold, wet, or windy it might be!

Date:

Astronomy

Apr. 01, 2013 Rise Set
Actual Time 7:11 AM CDT 7:54 PM CDT
Civil Twilight 6:44 AM CDT 8:22 PM CDT
Nautical Twilight 6:10 AM CDT 8:56 PM CDT
Astronomical Twilight 5:36 AM CDT 9:30 PM CDT
Moon 1:07 AM CDT (4/1) 10:56 AM CDT (4/1)
Length of Visible Light 13h 38m
Length of Day
12h 42m
Waning Gibbous, 67% of the Moon is Illuminated
Apr 1
Waning Gibbous
Apr 2
Last Quarter
Apr 10
New
Apr 18
First Quarter
Apr 25
Full

Hourly Weather History & Observations

Time (CDT) Temp. Windchill Dew Point Humidity Pressure Visibility Wind Dir Wind Speed Gust Speed Precip Events Conditions
12:15 AM 30.2 °F 19.8 °F 21.2 °F 69% 30.19 in 10.0 mi North 13.8 mph 24.2 mph N/A   Clear
12:35 AM 28.4 °F 18.0 °F 19.4 °F 69% 30.20 in 10.0 mi North 12.7 mph 18.4 mph N/A   Clear
12:55 AM 28.4 °F 19.7 °F 19.4 °F 69% 30.21 in 10.0 mi North 9.2 mph - N/A   Clear
1:15 AM 28.4 °F 18.5 °F 19.4 °F 69% 30.21 in 10.0 mi North 11.5 mph - N/A   Clear
1:35 AM 28.4 °F 18.0 °F 19.4 °F 69% 30.21 in 10.0 mi North 12.7 mph 16.1 mph N/A   Clear
1:55 AM 26.6 °F 17.5 °F 19.4 °F 74% 30.23 in 10.0 mi North 9.2 mph - N/A   Clear
2:15 AM 26.6 °F 17.5 °F 19.4 °F 74% 30.23 in 10.0 mi North 9.2 mph - N/A   Clear
2:35 AM 26.6 °F 18.2 °F 17.6 °F 69% 30.23 in 10.0 mi NNW 8.1 mph - N/A   Clear
2:55 AM 26.6 °F 16.8 °F 17.6 °F 69% 30.22 in 10.0 mi North 10.4 mph - N/A   Clear
3:15 AM 24.8 °F 16.9 °F 17.6 °F 74% 30.23 in 10.0 mi NNW 6.9 mph - N/A   Clear
3:35 AM 24.8 °F 19.1 °F 15.8 °F 69% 30.24 in 10.0 mi NW 4.6 mph - N/A   Clear
3:55 AM 24.8 °F 16.1 °F 15.8 °F 69% 30.24 in 10.0 mi NW 8.1 mph - N/A   Clear
4:15 AM 24.8 °F 15.3 °F 15.8 °F 69% 30.25 in 10.0 mi NW 9.2 mph - N/A   Clear
4:35 AM 24.8 °F 16.1 °F 15.8 °F 69% 30.26 in 10.0 mi NW 8.1 mph - N/A   Clear
4:55 AM 24.8 °F 16.1 °F 15.8 °F 69% 30.26 in 10.0 mi NNW 8.1 mph - N/A   Clear
5:15 AM 24.8 °F 17.9 °F 15.8 °F 69% 30.27 in 10.0 mi WNW 5.8 mph - N/A   Clear
5:35 AM 23.0 °F 13.9 °F 15.8 °F 74% 30.28 in 10.0 mi NW 8.1 mph - N/A   Clear
5:55 AM 23.0 °F 14.7 °F 14.0 °F 68% 30.28 in 10.0 mi NW 6.9 mph - N/A   Clear
6:15 AM 21.2 °F 12.6 °F 14.0 °F 74% 30.29 in 10.0 mi NW 6.9 mph - N/A   Clear
6:35 AM 23.0 °F 13.9 °F 14.0 °F 68% 30.30 in 10.0 mi NNW 8.1 mph - N/A   Clear
7:15 AM 21.2 °F 11.7 °F 14.0 °F 74% 30.31 in 10.0 mi NW 8.1 mph - N/A   Clear
7:35 AM 21.2 °F 12.6 °F 14.0 °F 74% 30.32 in 10.0 mi WNW 6.9 mph - N/A   Clear
8:15 AM 23.0 °F 14.7 °F 15.8 °F 74% 30.33 in 10.0 mi NNW 6.9 mph - N/A   Clear
8:35 AM 24.8 °F 14.6 °F 15.8 °F 69% 30.33 in 10.0 mi NNW 10.4 mph - N/A   Clear
8:55 AM 24.8 °F 13.4 °F 14.0 °F 64% 30.33 in 10.0 mi North 12.7 mph - N/A   Clear
9:15 AM 24.8 °F 14.0 °F 15.8 °F 69% 30.33 in 10.0 mi North 11.5 mph - N/A   Clear
9:35 AM 26.6 °F 16.8 °F 15.8 °F 64% 30.34 in 10.0 mi North 10.4 mph - N/A   Clear
9:55 AM 26.6 °F 15.7 °F 15.8 °F 64% 30.34 in 10.0 mi North 12.7 mph - N/A   Clear
10:15 AM 28.4 °F 16.6 °F 15.8 °F 59% 30.33 in 10.0 mi North 16.1 mph - N/A   Clear
10:35 AM 28.4 °F 17.0 °F 15.8 °F 59% 30.33 in 10.0 mi North 15.0 mph - N/A   Clear
10:55 AM 30.2 °F 18.5 °F 17.6 °F 60% 30.33 in 10.0 mi North 17.3 mph - N/A   Clear
11:15 AM 30.2 °F 19.8 °F 17.6 °F 60% 30.33 in 10.0 mi North 13.8 mph - N/A   Clear
11:35 AM 32.0 °F 23.0 °F 17.6 °F 55% 30.35 in 10.0 mi North 11.5 mph - N/A   Clear
12:15 PM 35.6 °F 25.9 °F 19.4 °F 52% 30.35 in 10.0 mi North 16.1 mph - N/A   Clear
12:35 PM 35.6 °F 27.1 °F 21.2 °F 56% 30.34 in 10.0 mi North 12.7 mph 16.1 mph N/A   Clear
12:55 PM 35.6 °F 27.5 °F 21.2 °F 56% 30.34 in 10.0 mi North 11.5 mph 18.4 mph N/A   Clear
1:15 PM 37.4 °F 28.5 °F 19.4 °F 48% 30.33 in 10.0 mi North 15.0 mph 20.7 mph N/A   Clear
1:35 PM 37.4 °F 29.8 °F 19.4 °F 48% 30.32 in 10.0 mi North 11.5 mph 18.4 mph N/A   Clear
1:55 PM 37.4 °F 30.3 °F 19.4 °F 48% 30.32 in 10.0 mi North 10.4 mph 19.6 mph N/A   Clear
2:15 PM 37.4 °F 29.3 °F 19.4 °F 48% 30.31 in 10.0 mi NNE 12.7 mph 18.4 mph N/A   Clear
2:35 PM 39.2 °F 33.0 °F 19.4 °F 45% 30.31 in 10.0 mi North 9.2 mph - N/A   Clear
2:55 PM 39.2 °F 37.0 °F 17.6 °F 42% 30.31 in 10.0 mi NW 3.5 mph - N/A   Clear
3:15 PM 39.2 °F 35.0 °F 19.4 °F 45% 30.30 in 10.0 mi NW 5.8 mph - N/A   Partly Cloudy
3:35 PM 39.2 °F 31.6 °F 17.6 °F 42% 30.29 in 10.0 mi NNE 12.7 mph - N/A   Partly Cloudy
3:55 PM 39.2 °F 32.5 °F 19.4 °F 45% 30.29 in 10.0 mi NW 10.4 mph - N/A   Clear
4:15 PM 41.0 °F 33.9 °F 19.4 °F 42% 30.28 in 10.0 mi NNE 12.7 mph - N/A   Partly Cloudy
4:35 PM 41.0 °F 33.9 °F 19.4 °F 42% 30.27 in 10.0 mi NNW 12.7 mph 17.3 mph N/A   Partly Cloudy
4:55 PM 41.0 °F 34.3 °F 19.4 °F 42% 30.27 in 10.0 mi NNE 11.5 mph 17.3 mph N/A   Partly Cloudy
5:15 PM 41.0 °F 34.3 °F 17.6 °F 39% 30.26 in 10.0 mi NW 11.5 mph 16.1 mph N/A   Clear
5:35 PM 41.0 °F 35.2 °F 17.6 °F 39% 30.26 in 10.0 mi NE 9.2 mph - N/A   Partly Cloudy
5:55 PM 41.0 °F 37.1 °F 17.6 °F 39% 30.25 in 10.0 mi WNW 5.8 mph - N/A   Clear
6:15 PM 41.0 °F 35.2 °F 17.6 °F 39% 30.25 in 10.0 mi NNE 9.2 mph - N/A   Clear
6:35 PM 41.0 °F 35.8 °F 17.6 °F 39% 30.25 in 10.0 mi North 8.1 mph - N/A   Clear
6:55 PM 41.0 °F 35.2 °F 17.6 °F 39% 30.25 in 10.0 mi NNE 9.2 mph - N/A   Clear
7:15 PM 39.2 °F 32.5 °F 17.6 °F 42% 30.25 in 10.0 mi NNE 10.4 mph - N/A   Clear
7:35 PM 37.4 °F 32.1 °F 17.6 °F 45% 30.25 in 10.0 mi NNE 6.9 mph - N/A   Clear
7:55 PM 35.6 °F 29.2 °F 17.6 °F 48% 30.25 in 10.0 mi NE 8.1 mph - N/A   Clear
8:15 PM 33.8 °F 27.7 °F 17.6 °F 52% 30.26 in 10.0 mi ENE 6.9 mph - N/A   Clear
8:35 PM 32.0 °F 26.4 °F 17.6 °F 55% 30.26 in 10.0 mi ENE 5.8 mph - N/A   Clear
8:55 PM 30.2 °F 24.3 °F 17.6 °F 60% 30.27 in 10.0 mi East 5.8 mph - N/A   Clear
9:15 PM 32.0 °F 26.4 °F 19.4 °F 60% 30.27 in 10.0 mi East 5.8 mph - N/A   Clear
9:35 PM 28.4 °F 22.2 °F 17.6 °F 64% 30.28 in 10.0 mi East 5.8 mph - N/A   Clear
9:55 PM 30.2 °F 25.4 °F 17.6 °F 60% 30.28 in 10.0 mi East 4.6 mph - N/A   Clear
10:15 PM 30.2 °F 26.7 °F 17.6 °F 60% 30.29 in 10.0 mi SE 3.5 mph - N/A   Clear
10:35 PM 28.4 °F - 17.6 °F 64% 30.29 in 10.0 mi Calm Calm - N/A   Clear
10:55 PM 28.4 °F 24.6 °F 17.6 °F 64% 30.29 in 10.0 mi East 3.5 mph - N/A   Clear
11:15 PM 26.6 °F - 17.6 °F 69% 30.30 in 10.0 mi Calm Calm - N/A   Clear
11:35 PM 26.6 °F - 19.4 °F 74% 30.29 in 10.0 mi Calm Calm - N/A   Clear
11:55 PM 26.6 °F - 19.4 °F 74% 30.29 in 10.0 mi Calm Calm - N/A   Clear